Location: *
(32.8140°S, 174.6161°E)
Time: 21:58:53
(UTC+00:00)

Cosmos 2100 Rocket - Pass Details

Date: 10 December 2019
Orbit: 957 x 1000 km, 82.9° (Epoch: 17 January)

Event Time Altitude Azimuth Distance (km) Brightness Sun altitude
Rises 14:15:35 0° 192° (SSW) 3,706 7.7 -27.2°
Reaches altitude 10° 14:18:10 10° 196° (SSW) 2,745 6.8 -26.9°
Maximum altitude 14:24:16 55° 271° (W) 1,163 4.1 -26.2°
Enters shadow 14:24:27 54° 278° (W) 1,165 4.1 -26.2°
